This is the latest recevied weather packets stored in our database for station/object KA9CBS. If no packets are shown the sender has not sent any weather packets the latest 10 day(s).
| Time | Temp. | Humidity | Pressure | Rain* | Wind** | Luminosity | Snow |
|---|---|---|---|---|---|---|---|
| 1787775085 | 31.67° C | 64% | 1015.8 hPa | 0 mm | - | 638 W/m² | - |
| 1787774784 | 31.67° C | 65% | 1016 hPa | 0 mm | - | 629 W/m² | - |
| 1787774479 | 31.67° C | 64% | 1016 hPa | 0 mm | - | 632 W/m² | - |
| 1787774178 | 31.67° C | 65% | 1016 hPa | 0 mm | - | 654 W/m² | - |
| 1787773877 | 31.67° C | 67% | 1016.2 hPa | 0 mm | - | 669 W/m² | - |
| 1787773576 | 31.67° C | 64% | 1016 hPa | 0 mm | - | 633 W/m² | - |
| 1787773272 | 32.22° C | 65% | 1016.4 hPa | 0 mm | - | 628 W/m² | - |
| 1787772972 | 32.22° C | 66% | 1016.4 hPa | 0 mm | - | 638 W/m² | - |
| 1787772668 | 31.67° C | 65% | 1016.3 hPa | 0 mm | - | 616 W/m² | - |
| 1787772366 | 31.67° C | 64% | 1016.5 hPa | 0 mm | - | 663 W/m² | - |
| 1787772065 | 31.67° C | 66% | 1016.5 hPa | 0 mm | - | 659 W/m² | - |
| 1787771760 | 31.67° C | 65% | 1016.4 hPa | 0 mm | - | 663 W/m² | - |
| 1787771459 | 31.11° C | 65% | 1016.6 hPa | 0 mm | - | 674 W/m² | - |
| 1787771158 | 31.11° C | 68% | 1016.4 hPa | 0 mm | - | 681 W/m² | - |
| 1787770854 | 31.67° C | 65% | 1016.6 hPa | 0 mm | - | 669 W/m² | - |
| 1787770552 | 31.67° C | 64% | 1016.8 hPa | 0 mm | - | 627 W/m² | - |
| 1787770252 | 31.11° C | 66% | 1016.6 hPa | 0 mm | - | 649 W/m² | - |
| 1787769951 | 30.56° C | 68% | 1016.9 hPa | 0 mm | - | 683 W/m² | - |
| 1787769646 | 30.56° C | 67% | 1016.9 hPa | 0 mm | - | 696 W/m² | - |
| 1787769344 | 31.11° C | 70% | 1016.9 hPa | 0 mm | - | 679 W/m² | - |
| 1787769040 | 31.11° C | 66% | 1017 hPa | 0 mm | - | 651 W/m² | - |
| 1787768735 | 30.56° C | 68% | 1017.1 hPa | 0 mm | - | 617 W/m² | - |
| 1787768431 | 30.56° C | 65% | 1016.9 hPa | 0 mm | - | 613 W/m² | - |
| 1787768121 | 31.11° C | 66% | 1017.2 hPa | 0 mm | - | 661 W/m² | - |
| 1787767815 | 31.11° C | 66% | 1017 hPa | 0 mm | - | 641 W/m² | - |
* Rain latest hour (hover to see other rain measurements)
** Current wind speed in m/s (hover to see current wind gust speed)